Location: Eurasberg
(48.3353°N, 11.0839°E)
Time: 06:27:46
(UTC+00:00)

CZ-4C R/B - Pass Details

Date: 18 January 2026
Orbit: 483 x 1496 km, 63.4° (Epoch: 10 February)

Event Time Altitude Azimuth Distance (km) Brightness Sun altitude
Exits shadow 04:15:15 19° 348° (NNW) 2,094 4.1 -26.8°
Maximum altitude 04:17:30 23° 17° (NNE) 2,022 4.3 -26.5°
Drops below altitude 10° 04:23:08 10° 67° (ENE) 3,108 5.9 -25.5°
Sets 04:26:56 0° 80° (E) 4,249 7.1 -24.9°
